Hourly Weather Abolcy

Today, 16 April, Friday

Time Temperature Precipitation Wind Pressure Humidity
00:00 +7°C° 0 mm 2 mps 746 mmHg 93%
01:00 +6°C° 0 mm 2 mps 746 mmHg 93%
02:00 +6°C° 0 mm 2 mps 746 mmHg 94%
03:00 +6°C° 0.1 mm 2 mps 746 mmHg 94%
04:00 +6°C° 0.1 mm 2 mps 746 mmHg 95%
05:00 +6°C° 0.1 mm 2 mps 746 mmHg 96%
06:00 +7°C° 0 mm 2 mps 746 mmHg 92%
07:00 +8°C° 0 mm 2 mps 746 mmHg 89%
08:00 +9°C° 0 mm 2 mps 746 mmHg 85%
09:00 +10°C° 0.3 mm 3 mps 746 mmHg 79%
10:00 +11°C° 0.3 mm 4 mps 746 mmHg 73%
11:00 +12°C° 0.3 mm 5 mps 746 mmHg 67%
12:00 +12°C° 0.4 mm 5 mps 746 mmHg 68%
13:00 +11°C° 0.4 mm 6 mps 746 mmHg 68%
14:00 +11°C° 0.4 mm 6 mps 746 mmHg 68%
15:00 +10°C° 0.1 mm 5 mps 747 mmHg 72%
16:00 +10°C° 0.1 mm 4 mps 747 mmHg 75%
17:00 +10°C° 0.1 mm 3 mps 747 mmHg 79%
18:00 +9°C° 0.1 mm 3 mps 747 mmHg 83%
19:00 +8°C° 0.1 mm 2 mps 747 mmHg 86%
20:00 +8°C° 0.1 mm 2 mps 748 mmHg 90%
21:00 +7°C° 0.1 mm 2 mps 748 mmHg 91%
22:00 +7°C° 0.1 mm 2 mps 748 mmHg 92%
23:00 +7°C° 0.1 mm 2 mps 748 mmHg 93%

Tomorrow, 17 April, Saturday

Time Temperature Precipitation Wind Pressure Humidity
00:00 +7°C° 0 mm 2 mps 748 mmHg 94%
01:00 +7°C° 0 mm 2 mps 749 mmHg 94%
02:00 +7°C° 0 mm 2 mps 749 mmHg 94%
03:00 +7°C° 0 mm 2 mps 749 mmHg 94%
04:00 +7°C° 0 mm 2 mps 749 mmHg 94%
05:00 +7°C° 0 mm 2 mps 749 mmHg 94%
06:00 +7°C° 0.1 mm 2 mps 750 mmHg 91%
07:00 +8°C° 0.1 mm 2 mps 750 mmHg 87%
08:00 +9°C° 0.1 mm 2 mps 751 mmHg 84%
09:00 +10°C° 0.2 mm 2 mps 751 mmHg 77%
10:00 +12°C° 0.2 mm 2 mps 751 mmHg 70%
11:00 +12°C° 0.2 mm 3 mps 751 mmHg 63%
12:00 +13°C° 0.1 mm 2 mps 751 mmHg 60%
13:00 +14°C° 0.1 mm 2 mps 751 mmHg 57%
14:00 +14°C° 0.1 mm 2 mps 751 mmHg 54%
15:00 +14°C° 0.1 mm 2 mps 751 mmHg 57%
16:00 +13°C° 0.1 mm 1 mps 750 mmHg 61%
17:00 +13°C° 0.1 mm 1 mps 750 mmHg 64%
18:00 +12°C° 0.7 mm 1 mps 750 mmHg 73%
19:00 +10°C° 0.7 mm 2 mps 750 mmHg 81%
20:00 +9°C° 0.7 mm 2 mps 750 mmHg 90%
21:00 +9°C° 0.3 mm 3 mps 750 mmHg 91%
22:00 +9°C° 0.3 mm 3 mps 750 mmHg 92%
23:00 +9°C° 0.3 mm 3 mps 749 mmHg 93%

Day after tomorrow, 18 April, Sunday

Time Temperature Precipitation Wind Pressure Humidity
00:00 +9°C° 0.1 mm 3 mps 749 mmHg 93%
01:00 +9°C° 0.1 mm 3 mps 749 mmHg 93%
02:00 +9°C° 0.1 mm 3 mps 749 mmHg 94%
03:00 +8°C° 0.1 mm 4 mps 749 mmHg 92%
04:00 +8°C° 0.1 mm 4 mps 749 mmHg 91%
05:00 +8°C° 0.1 mm 5 mps 748 mmHg 90%
06:00 +8°C° 0 mm 5 mps 749 mmHg 86%
07:00 +7°C° 0 mm 5 mps 749 mmHg 83%
08:00 +7°C° 0 mm 6 mps 749 mmHg 79%
09:00 +7°C° 0 mm 6 mps 750 mmHg 76%
10:00 +7°C° 0 mm 6 mps 750 mmHg 74%
11:00 +7°C° 0 mm 6 mps 750 mmHg 71%
12:00 +7°C° 0 mm 6 mps 751 mmHg 69%
13:00 +8°C° 0 mm 5 mps 751 mmHg 67%
14:00 +8°C° 0 mm 4 mps 751 mmHg 65%
15:00 +10°C° 0 mm 4 mps 751 mmHg 64%
16:00 +10°C° 0 mm 4 mps 751 mmHg 63%
17:00 +11°C° 0 mm 4 mps 751 mmHg 62%
18:00 +9°C° 0 mm 3 mps 751 mmHg 68%
19:00 +8°C° 0 mm 3 mps 751 mmHg 74%
20:00 +7°C° 0 mm 3 mps 752 mmHg 81%
21:00 +7°C° 0 mm 3 mps 752 mmHg 85%
22:00 +5°C° 0 mm 3 mps 752 mmHg 88%
23:00 +5°C° 0 mm 3 mps 752 mmHg 92%

19 April, Monday

Time Temperature Precipitation Wind Pressure Humidity
00:00 +4°C° 0 mm 3 mps 752 mmHg 93%
01:00 +4°C° 0 mm 3 mps 752 mmHg 95%
02:00 +3°C° 0 mm 3 mps 752 mmHg 96%
03:00 +3°C° 0 mm 3 mps 752 mmHg 96%
04:00 +3°C° 0 mm 3 mps 751 mmHg 96%
05:00 +2°C° 0 mm 3 mps 751 mmHg 96%
06:00 +3°C° 0 mm 3 mps 751 mmHg 90%
07:00 +4°C° 0 mm 3 mps 751 mmHg 84%
08:00 +5°C° 0 mm 4 mps 751 mmHg 79%
09:00 +6°C° 0 mm 4 mps 751 mmHg 76%
10:00 +6°C° 0 mm 4 mps 751 mmHg 74%
11:00 +7°C° 0 mm 4 mps 751 mmHg 71%
12:00 +7°C° 0 mm 4 mps 751 mmHg 73%
13:00 +7°C° 0 mm 4 mps 750 mmHg 75%
14:00 +7°C° 0 mm 4 mps 750 mmHg 77%
15:00 +7°C° 0 mm 4 mps 750 mmHg 80%
16:00 +6°C° 0 mm 4 mps 750 mmHg 83%
17:00 +6°C° 0 mm 4 mps 750 mmHg 86%
18:00 +6°C° 0 mm 4 mps 749 mmHg 88%
19:00 +5°C° 0 mm 4 mps 748 mmHg 89%
20:00 +5°C° 0 mm 4 mps 748 mmHg 91%
21:00 +5°C° 0 mm 4 mps 748 mmHg 90%
22:00 +5°C° 0 mm 3 mps 747 mmHg 89%
23:00 +5°C° 0 mm 3 mps 747 mmHg 88%

20 April, Tuesday

Time Temperature Precipitation Wind Pressure Humidity
00:00 +4°C° 0 mm 3 mps 747 mmHg 90%
01:00 +4°C° 0 mm 3 mps 746 mmHg 93%
02:00 +3°C° 0 mm 3 mps 746 mmHg 95%
03:00 +3°C° 0 mm 3 mps 745 mmHg 96%
04:00 +3°C° 0 mm 4 mps 744 mmHg 96%
05:00 +3°C° 0 mm 4 mps 744 mmHg 96%
06:00 +3°C° 0 mm 5 mps 743 mmHg 93%
07:00 +5°C° 0 mm 5 mps 742 mmHg 90%
08:00 +5°C° 0 mm 6 mps 742 mmHg 87%
09:00 +5°C° 0.4 mm 7 mps 741 mmHg 87%
10:00 +5°C° 0.4 mm 7 mps 740 mmHg 87%
11:00 +6°C° 0.4 mm 8 mps 739 mmHg 86%
12:00 +5°C° 1.9 mm 8 mps 739 mmHg 88%
13:00 +5°C° 1.9 mm 9 mps 738 mmHg 90%
14:00 +3°C° 1.9 mm 9 mps 737 mmHg 92%
15:00 +3°C° 1.6 mm 9 mps 736 mmHg 93%
16:00 +2°C° 1.6 mm 8 mps 736 mmHg 94%
17:00 +1°C° 1.6 mm 8 mps 736 mmHg 96%
18:00 +1°C° 0.8 mm 8 mps 735 mmHg 96%
19:00 +2°C° 0.8 mm 7 mps 735 mmHg 96%
20:00 +2°C° 0.8 mm 7 mps 735 mmHg 96%
21:00 0°C° 0.6 mm 7 mps 735 mmHg 96%
22:00 +1°C° 0.6 mm 6 mps 735 mmHg 96%
23:00 +1°C° 0.6 mm 6 mps 735 mmHg 96%

21 April, Wednesday

Time Temperature Precipitation Wind Pressure Humidity
00:00 +1°C° 0.2 mm 6 mps 735 mmHg 96%
01:00 +1°C° 0.2 mm 5 mps 735 mmHg 96%
02:00 +1°C° 0.2 mm 5 mps 736 mmHg 96%
03:00 +1°C° 0.2 mm 5 mps 736 mmHg 96%
04:00 +1°C° 0.2 mm 5 mps 736 mmHg 96%
05:00 +1°C° 0.2 mm 5 mps 736 mmHg 96%
06:00 +1°C° 0.2 mm 5 mps 737 mmHg 96%
07:00 +2°C° 0.2 mm 5 mps 737 mmHg 96%
08:00 +2°C° 0.2 mm 5 mps 737 mmHg 96%
09:00 +2°C° 0.2 mm 6 mps 738 mmHg 96%
10:00 +2°C° 0.2 mm 6 mps 738 mmHg 96%
11:00 +2°C° 0.2 mm 6 mps 739 mmHg 96%
12:00 +3°C° 0.2 mm 6 mps 740 mmHg 93%
13:00 +5°C° 0.2 mm 5 mps 740 mmHg 91%
14:00 +5°C° 0.2 mm 5 mps 741 mmHg 88%
15:00 +6°C° 0.1 mm 5 mps 742 mmHg 83%
16:00 +7°C° 0.1 mm 5 mps 742 mmHg 77%
17:00 +8°C° 0.1 mm 5 mps 743 mmHg 71%
18:00 +7°C° 0 mm 4 mps 743 mmHg 76%
19:00 +6°C° 0 mm 4 mps 744 mmHg 81%
20:00 +5°C° 0 mm 3 mps 744 mmHg 86%
21:00 +5°C° 0 mm 3 mps 745 mmHg 88%
22:00 +4°C° 0 mm 3 mps 745 mmHg 90%
23:00 +4°C° 0 mm 3 mps 746 mmHg 92%
Show more